Miscellaneous Local Product
Issued by NWS Hastings, NE

Home | Current Version | Previous Version | Graphics & Text | Print | Product List | Glossary On
Versions: 1 2 3 4 5 6 7 8 9 10 11 12 13 14 15 16 17 18 19 20 21 22 23 24 25 26 27 28 29 30 31 32 33 34 35 36 37 38 39 40 41 42 43 44 45 46 47 48 49 50
934
AXUS43 KGID 251002
MISGRI

GID CWA HOURLY WEATHER ROUNDUP
NATIONAL WEATHER SERVICE HASTINGS NE
500 AM CDT WED MAY 25 2016

NOTE: "FAIR" INDICATES FEW OR NO CLOUDS BELOW 12,000 FEET WITH NO
SIGNIFICANT WEATHER AND/OR OBSTRUCTIONS TO VISIBILITY.

...SOUTH CENTRAL NEBRASKA...

CITY           SKY/WX    TMP DP  RH WIND       PRES   REMARKS
GRAND ISLAND   TSTM      60  58  92 SE9       29.86R
HASTINGS       TSTM      60  59  96 E9        29.81R FOG
KEARNEY        CLOUDY    61  55  82 NW15      29.90R THUNDER
ORD            RAIN      59  57  93 NW6       29.84R
YORK           LGT RAIN  63  57  82 S6        29.85R
AURORA         TSTM      63  59  86 NE6       29.86R
LEXINGTON      LGT RAIN  58  55  88 N3        29.89R
HOLDREGE       CLOUDY    61  58  91 NW10      29.87R
HEBRON         HVY RAIN  61  58  88 SW5       29.87R

...NEBRASKA PANHANDLE...

CITY           SKY/WX    TMP DP  RH WIND       PRES   REMARKS
CHADRON        CLOUDY    45  32  60 CALM      29.85S
ALLIANCE       CLOUDY    51  50  96 SE3       29.87F
SCOTTSBLUFF    CLOUDY    52  48  86 SE5       29.89R
SIDNEY         CLOUDY    50  48  93 N6        29.90F

...WESTERN AND NORTH CENTRAL NEBRASKA...

CITY           SKY/WX    TMP DP  RH WIND       PRES   REMARKS
VALENTINE      CLOUDY    57  54  89 NW5       29.83R
AINSWORTH      MOCLDY    57  55  95 SW13      29.83R
ONEILL         CLOUDY    58  57  95 CALM      29.80R
BROKEN BOW     RAIN      58  56  93 SW9       29.90R FOG
IMPERIAL       MOCLDY    57  50  77 NE7       29.83S
NORTH PLATTE   CLOUDY    57  55  93 SE8       29.80F
MCCOOK         LGT RAIN  60  56  86 NE14      29.86R

...EASTERN NEBRASKA...

CITY           SKY/WX    TMP DP  RH WIND       PRES   REMARKS
NORFOLK        CLOUDY    61  55  81 SE9       29.78F
SO SIOUX CITY  LGT RAIN  66  59  78 S3        29.82R
TEKAMAH        CLOUDY    65  58  78 W8        29.82R
COLUMBUS       MOCLDY    64  50  59 NE3       29.83R
ALBION         RAIN      59  56  90 CALM      29.84R
OMAHA EPPLEY   LGT RAIN  65  60  84 SE12G29   29.75F
MILLARD        CLOUDY    69  58  66 SE13G21   29.74S
LINCOLN        CLOUDY    66  58  75 W13G22    29.83R
NEBRASKA CITY  LGT RAIN  62  62 100 E10       29.75F
BEATRICE       CLOUDY    67  56  67 S14       29.75R
FALLS CITY     CLOUDY    63  62  97 NE3       29.78F

...NORTHERN KANSAS...

CITY           SKY/WX    TMP DP  RH WIND       PRES   REMARKS
GOODLAND       FOG       55  54  96 N17       29.81R VSB 3/4
HILL CITY      CLOUDY    63  55  75 E13       29.80R
NORTON         CLOUDY    61  50  67 NE9       29.81R
PHILLIPSBURG   MOCLDY    63  55  77 E9        29.81F
SMITH CENTER   CLOUDY    59  55  88 E12       29.84R
HAYS           CLOUDY    55  52  88 SE18G25   29.77R
RUSSELL        CLOUDY    61  57  87 SE23G30   29.75S
CONCORDIA      CLOUDY    62  57  83 NW12      29.86R
SALINA         CLOUDY    64  59  83 SE15      29.79F
TOPEKA         CLOUDY    68  57  68 SE17G28   29.83R



USA.gov is the U.S. government's official web portal to all federal, state and local government web resources and services.